Year,Month,Day,Hour,Minute,Value (Times are PST for temperature in C)
2010,10,19,00,00,5.90
2010,10,19,00,01,5.90
2010,10,19,00,02,5.90
2010,10,19,00,03,5.90
2010,10,19,00,04,5.90
2010,10,19,00,05,5.90
2010,10,19,00,06,6.00
2010,10,19,00,07,6.00
2010,10,19,00,08,6.00
2010,10,19,00,09,6.00
2010,10,19,00,10,6.00
2010,10,19,00,11,6.00
2010,10,19,00,12,6.00
2010,10,19,00,13,6.00
2010,10,19,00,14,6.00
2010,10,19,00,15,6.00
2010,10,19,00,16,6.00
2010,10,19,00,17,6.00
2010,10,19,00,18,6.00
2010,10,19,00,19,6.00
2010,10,19,00,20,6.00
2010,10,19,00,21,6.00
2010,10,19,00,22,6.00
2010,10,19,00,23,6.00
2010,10,19,00,24,6.00
2010,10,19,00,25,6.00
2010,10,19,00,26,5.90
2010,10,19,00,27,5.90
2010,10,19,00,28,5.90
2010,10,19,00,29,5.80
2010,10,19,00,30,5.80
2010,10,19,00,31,5.80
2010,10,19,00,32,5.70
2010,10,19,00,33,5.70
2010,10,19,00,34,5.70
2010,10,19,00,35,5.70
2010,10,19,00,36,5.70
2010,10,19,00,37,5.70
2010,10,19,00,38,5.70
2010,10,19,00,39,5.70
2010,10,19,00,40,5.70
2010,10,19,00,41,5.70
2010,10,19,00,42,5.60
2010,10,19,00,43,5.60
2010,10,19,00,44,5.60
2010,10,19,00,45,5.60
2010,10,19,00,46,5.60
2010,10,19,00,47,5.50
2010,10,19,00,48,5.50
2010,10,19,00,49,5.50
2010,10,19,00,50,5.40
2010,10,19,00,51,5.40
2010,10,19,00,52,5.30
2010,10,19,00,53,5.30
2010,10,19,00,54,5.30
2010,10,19,00,55,5.30
2010,10,19,00,56,5.30
2010,10,19,00,57,5.30
2010,10,19,00,58,5.30
2010,10,19,00,59,5.20
2010,10,19,01,00,5.20
2010,10,19,01,01,5.20
2010,10,19,01,02,5.20
2010,10,19,01,03,5.20
2010,10,19,01,04,5.20
2010,10,19,01,05,5.20
2010,10,19,01,06,5.10
2010,10,19,01,07,5.10
2010,10,19,01,08,5.10
2010,10,19,01,09,5.10
2010,10,19,01,10,5.10
2010,10,19,01,11,5.10
2010,10,19,01,12,5.10
2010,10,19,01,13,5.10
2010,10,19,01,14,5.00
2010,10,19,01,15,4.90
2010,10,19,01,16,4.90
2010,10,19,01,17,4.90
2010,10,19,01,18,4.90
2010,10,19,01,19,4.90
2010,10,19,01,20,4.90
2010,10,19,01,21,4.90
2010,10,19,01,22,4.90
2010,10,19,01,23,4.90
2010,10,19,01,24,4.90
2010,10,19,01,25,4.90
2010,10,19,01,26,4.90
2010,10,19,01,27,4.90
2010,10,19,01,28,4.90
2010,10,19,01,29,4.90
2010,10,19,01,30,4.90
2010,10,19,01,31,4.90
2010,10,19,01,32,4.90
2010,10,19,01,33,4.90
2010,10,19,01,34,4.90
2010,10,19,01,35,4.90
2010,10,19,01,36,4.90
2010,10,19,01,37,4.90
2010,10,19,01,38,4.90
2010,10,19,01,39,4.90
2010,10,19,01,40,4.90
2010,10,19,01,41,4.90
2010,10,19,01,42,4.90
2010,10,19,01,43,4.80
2010,10,19,01,44,4.80
2010,10,19,01,45,4.80
2010,10,19,01,46,4.80
2010,10,19,01,47,4.80
2010,10,19,01,48,4.80
2010,10,19,01,49,4.80
2010,10,19,01,50,4.80
2010,10,19,01,51,4.80
2010,10,19,01,52,4.80
2010,10,19,01,53,4.80
2010,10,19,01,54,4.80
2010,10,19,01,55,4.90
2010,10,19,01,56,4.90
2010,10,19,01,57,4.90
2010,10,19,01,58,4.90
2010,10,19,01,59,4.90
2010,10,19,02,00,4.90
2010,10,19,02,01,4.90
2010,10,19,02,02,4.90
2010,10,19,02,03,4.90
2010,10,19,02,04,4.90
2010,10,19,02,05,4.90
2010,10,19,02,06,4.80
2010,10,19,02,07,4.80
2010,10,19,02,08,4.80
2010,10,19,02,09,4.80
2010,10,19,02,10,4.80
2010,10,19,02,11,4.80
2010,10,19,02,12,4.80
2010,10,19,02,13,4.80
2010,10,19,02,14,4.80
2010,10,19,02,15,4.80
2010,10,19,02,16,4.80
2010,10,19,02,17,4.80
2010,10,19,02,18,4.80
2010,10,19,02,19,4.80
2010,10,19,02,20,4.80
2010,10,19,02,21,4.70
2010,10,19,02,22,4.70
2010,10,19,02,23,4.70
2010,10,19,02,24,4.70
2010,10,19,02,25,4.60
2010,10,19,02,26,4.60
2010,10,19,02,27,4.60
2010,10,19,02,28,4.60
2010,10,19,02,29,4.60
2010,10,19,02,30,4.60
2010,10,19,02,31,4.60
2010,10,19,02,32,4.60
2010,10,19,02,33,4.60
2010,10,19,02,34,4.60
2010,10,19,02,35,4.50
2010,10,19,02,36,4.50
2010,10,19,02,37,4.50
2010,10,19,02,38,4.50
2010,10,19,02,39,4.50
2010,10,19,02,40,4.40
2010,10,19,02,41,4.40
2010,10,19,02,42,4.40
2010,10,19,02,43,4.40
2010,10,19,02,44,4.30
2010,10,19,02,45,4.30
2010,10,19,02,46,4.20
2010,10,19,02,47,4.20
2010,10,19,02,48,4.20
2010,10,19,02,49,4.20
2010,10,19,02,50,4.20
2010,10,19,02,51,4.20
2010,10,19,02,52,4.20
2010,10,19,02,53,4.20
2010,10,19,02,54,4.20
2010,10,19,02,55,4.20
2010,10,19,02,56,4.20
2010,10,19,02,57,4.20
2010,10,19,02,58,4.20
2010,10,19,02,59,4.20
2010,10,19,03,00,4.20
2010,10,19,03,01,4.20
2010,10,19,03,02,4.20
2010,10,19,03,03,4.20
2010,10,19,03,04,4.20
2010,10,19,03,05,4.20
2010,10,19,03,06,4.20
2010,10,19,03,07,4.20
2010,10,19,03,08,4.20
2010,10,19,03,09,4.10
2010,10,19,03,10,4.10
2010,10,19,03,11,4.10
2010,10,19,03,12,4.10
2010,10,19,03,13,4.10
2010,10,19,03,14,4.10
2010,10,19,03,15,4.10
2010,10,19,03,16,4.00
2010,10,19,03,17,4.00
2010,10,19,03,18,4.00
2010,10,19,03,19,4.00
2010,10,19,03,20,4.00
2010,10,19,03,21,4.00
2010,10,19,03,22,4.00
2010,10,19,03,23,4.00
2010,10,19,03,24,4.00
2010,10,19,03,25,4.00
2010,10,19,03,26,4.10
2010,10,19,03,27,4.10
2010,10,19,03,28,4.20
2010,10,19,03,29,4.20
2010,10,19,03,30,4.20
2010,10,19,03,31,4.20
2010,10,19,03,32,4.20
2010,10,19,03,33,4.20
2010,10,19,03,34,4.20
2010,10,19,03,35,4.20
2010,10,19,03,36,4.20
2010,10,19,03,37,4.20
2010,10,19,03,38,4.20
2010,10,19,03,39,4.20
2010,10,19,03,40,4.20
2010,10,19,03,41,4.20
2010,10,19,03,42,4.20
2010,10,19,03,43,4.20
2010,10,19,03,44,4.20
2010,10,19,03,45,4.20
2010,10,19,03,46,4.20
2010,10,19,03,47,4.20
2010,10,19,03,48,4.20
2010,10,19,03,49,4.20
2010,10,19,03,50,4.20
2010,10,19,03,51,4.20
2010,10,19,03,52,4.20
2010,10,19,03,53,4.20
2010,10,19,03,54,4.30
2010,10,19,03,55,4.30
2010,10,19,03,56,4.30
2010,10,19,03,57,4.30
2010,10,19,03,58,4.30
2010,10,19,03,59,4.30
2010,10,19,04,00,4.30
2010,10,19,04,01,4.30
2010,10,19,04,02,4.30
2010,10,19,04,03,4.30
2010,10,19,04,04,4.20
2010,10,19,04,05,4.20
2010,10,19,04,06,4.20
2010,10,19,04,07,4.20
2010,10,19,04,08,4.20
2010,10,19,04,09,4.20
2010,10,19,04,10,4.20
2010,10,19,04,11,4.20
2010,10,19,04,12,4.20
2010,10,19,04,13,4.20
2010,10,19,04,14,4.20
2010,10,19,04,15,4.20
2010,10,19,04,16,4.20
2010,10,19,04,17,4.20
2010,10,19,04,18,4.20
2010,10,19,04,19,4.20
2010,10,19,04,20,4.20
2010,10,19,04,21,4.20
2010,10,19,04,22,4.30
2010,10,19,04,23,4.30
2010,10,19,04,24,4.30
2010,10,19,04,25,4.30
2010,10,19,04,26,4.30
2010,10,19,04,27,4.30
2010,10,19,04,28,4.30
2010,10,19,04,29,4.30
2010,10,19,04,30,4.30
2010,10,19,04,31,4.30
2010,10,19,04,32,4.30
2010,10,19,04,33,4.30
2010,10,19,04,34,4.40
2010,10,19,04,35,4.40
2010,10,19,04,36,4.40
2010,10,19,04,37,4.40
2010,10,19,04,38,4.40
2010,10,19,04,39,4.40
2010,10,19,04,40,4.40
2010,10,19,04,41,4.50
2010,10,19,04,42,4.50
2010,10,19,04,43,4.50
2010,10,19,04,44,4.60
2010,10,19,04,45,4.60
2010,10,19,04,46,4.60
2010,10,19,04,47,4.60
2010,10,19,04,48,4.60
2010,10,19,04,49,4.60
2010,10,19,04,50,4.60
2010,10,19,04,51,4.60
2010,10,19,04,52,4.60
2010,10,19,04,53,4.60
2010,10,19,04,54,4.60
2010,10,19,04,55,4.60
2010,10,19,04,56,4.60
2010,10,19,04,57,4.60
2010,10,19,04,58,4.60
2010,10,19,04,59,4.60
2010,10,19,05,00,4.70
2010,10,19,05,01,4.70
2010,10,19,05,02,4.70
2010,10,19,05,03,4.70
2010,10,19,05,04,4.80
2010,10,19,05,05,4.80
2010,10,19,05,06,4.80
2010,10,19,05,07,4.90
2010,10,19,05,08,4.90
2010,10,19,05,09,4.90
2010,10,19,05,10,4.90
2010,10,19,05,11,4.90
2010,10,19,05,12,4.90
2010,10,19,05,13,4.90
2010,10,19,05,14,5.00
2010,10,19,05,15,5.10
2010,10,19,05,16,5.10
2010,10,19,05,17,5.10
2010,10,19,05,18,5.10
2010,10,19,05,19,5.10
2010,10,19,05,20,5.10
2010,10,19,05,21,5.20
2010,10,19,05,22,5.20
2010,10,19,05,23,5.20
2010,10,19,05,24,5.30
2010,10,19,05,25,5.30
2010,10,19,05,26,5.30
2010,10,19,05,27,5.30
2010,10,19,05,28,5.30
2010,10,19,05,29,5.30
2010,10,19,05,30,5.30
2010,10,19,05,31,5.30
2010,10,19,05,32,5.40
2010,10,19,05,33,5.40
2010,10,19,05,34,5.50
2010,10,19,05,35,5.50
2010,10,19,05,36,5.60
2010,10,19,05,37,5.60
2010,10,19,05,38,5.60
2010,10,19,05,39,5.60
2010,10,19,05,40,5.60
2010,10,19,05,41,5.60
2010,10,19,05,42,5.50
2010,10,19,05,43,5.50
2010,10,19,05,44,5.50
2010,10,19,05,45,5.50
2010,10,19,05,46,5.40
2010,10,19,05,47,5.40
2010,10,19,05,48,5.40
2010,10,19,05,49,5.40
2010,10,19,05,50,5.40
2010,10,19,05,51,5.50
2010,10,19,05,52,5.50
2010,10,19,05,53,5.60
2010,10,19,05,54,5.60
2010,10,19,05,55,5.60
2010,10,19,05,56,5.70
2010,10,19,05,57,5.70
2010,10,19,05,58,5.70
2010,10,19,05,59,5.70
2010,10,19,06,00,5.70
2010,10,19,06,01,5.70
2010,10,19,06,02,5.70
2010,10,19,06,03,5.80
2010,10,19,06,04,5.80
2010,10,19,06,05,5.80
2010,10,19,06,06,5.80
2010,10,19,06,07,5.90
2010,10,19,06,08,5.90
2010,10,19,06,09,5.90
2010,10,19,06,10,5.90
2010,10,19,06,11,5.90
2010,10,19,06,12,5.90
2010,10,19,06,13,5.90
2010,10,19,06,14,5.90
2010,10,19,06,15,5.90
2010,10,19,06,16,5.90
2010,10,19,06,17,5.90
2010,10,19,06,18,5.90
2010,10,19,06,19,5.90
2010,10,19,06,20,5.80
2010,10,19,06,21,5.80
2010,10,19,06,22,5.80
2010,10,19,06,23,5.80
2010,10,19,06,24,5.80
2010,10,19,06,25,5.80
2010,10,19,06,26,5.80
2010,10,19,06,27,5.80
2010,10,19,06,28,5.80
2010,10,19,06,29,5.80
2010,10,19,06,30,5.80
2010,10,19,06,31,5.80
2010,10,19,06,32,5.80
2010,10,19,06,33,5.80
2010,10,19,06,34,5.80
2010,10,19,06,35,5.80
2010,10,19,06,36,5.80
2010,10,19,06,37,5.80
2010,10,19,06,38,5.70
2010,10,19,06,39,5.70
2010,10,19,06,40,5.70
2010,10,19,06,41,5.70
2010,10,19,06,42,5.70
2010,10,19,06,43,5.70
2010,10,19,06,44,5.70
2010,10,19,06,45,5.70
2010,10,19,06,46,5.70
2010,10,19,06,47,5.70
2010,10,19,06,48,5.70
2010,10,19,06,49,5.70
2010,10,19,06,50,5.70
2010,10,19,06,51,5.70
2010,10,19,06,52,5.70
2010,10,19,06,53,5.70
2010,10,19,06,54,5.70
2010,10,19,06,55,5.70
2010,10,19,06,56,5.70
2010,10,19,06,57,5.70
2010,10,19,06,58,5.70
2010,10,19,06,59,5.70
2010,10,19,07,00,5.70
2010,10,19,07,01,5.70
2010,10,19,07,02,5.70
2010,10,19,07,03,5.70
2010,10,19,07,04,5.70
2010,10,19,07,05,5.70
2010,10,19,07,06,5.70
2010,10,19,07,07,5.70
2010,10,19,07,08,5.70
2010,10,19,07,09,5.70
2010,10,19,07,10,5.70
2010,10,19,07,11,5.70
2010,10,19,07,12,5.70
2010,10,19,07,13,5.70
2010,10,19,07,14,5.70
2010,10,19,07,15,5.60
2010,10,19,07,16,5.60
2010,10,19,07,17,5.60
2010,10,19,07,18,5.60
2010,10,19,07,19,5.60
2010,10,19,07,20,5.50
2010,10,19,07,21,5.50
2010,10,19,07,22,5.50
2010,10,19,07,23,5.50
2010,10,19,07,24,5.50
2010,10,19,07,25,5.50
2010,10,19,07,26,5.50
2010,10,19,07,27,5.50
2010,10,19,07,28,5.50
2010,10,19,07,29,5.50
2010,10,19,07,30,5.40
2010,10,19,07,31,5.40
2010,10,19,07,32,5.40
2010,10,19,07,33,5.40
2010,10,19,07,34,5.40
2010,10,19,07,35,5.40
2010,10,19,07,36,5.30
2010,10,19,07,37,5.30
2010,10,19,07,38,5.30
2010,10,19,07,39,5.30
2010,10,19,07,40,5.30
2010,10,19,07,41,5.30
2010,10,19,07,42,5.30
2010,10,19,07,43,5.30
2010,10,19,07,44,5.30
2010,10,19,07,45,5.30
2010,10,19,07,46,5.30
2010,10,19,07,47,5.30
2010,10,19,07,48,5.30
2010,10,19,07,49,5.30
2010,10,19,07,50,5.30
2010,10,19,07,51,5.30
2010,10,19,07,52,5.30
2010,10,19,07,53,5.30
2010,10,19,07,54,5.30
2010,10,19,07,55,5.30
2010,10,19,07,56,5.30
2010,10,19,07,57,5.30
2010,10,19,07,58,5.30
2010,10,19,07,59,5.20
2010,10,19,08,00,5.20
2010,10,19,08,01,5.20
2010,10,19,08,02,5.20
2010,10,19,08,03,5.10
2010,10,19,08,04,5.10
2010,10,19,08,05,5.10
2010,10,19,08,06,5.10
2010,10,19,08,07,5.10
2010,10,19,08,08,5.10
2010,10,19,08,09,5.10
2010,10,19,08,10,5.10
2010,10,19,08,11,5.10
2010,10,19,08,12,5.10
2010,10,19,08,13,5.10
2010,10,19,08,14,5.10
2010,10,19,08,15,5.10
2010,10,19,08,16,5.10
2010,10,19,08,17,5.10
2010,10,19,08,18,5.10
2010,10,19,08,19,5.10
2010,10,19,08,20,5.10
2010,10,19,08,21,5.10
2010,10,19,08,22,5.10
2010,10,19,08,23,5.10
2010,10,19,08,24,5.10
2010,10,19,08,25,5.10
2010,10,19,08,26,5.10
2010,10,19,08,27,5.20
2010,10,19,08,28,5.20
2010,10,19,08,29,5.20
2010,10,19,08,30,5.30
2010,10,19,08,31,5.30
2010,10,19,08,32,5.30
2010,10,19,08,33,5.30
2010,10,19,08,34,5.30
2010,10,19,08,35,5.40
2010,10,19,08,36,5.40
2010,10,19,08,37,5.40
2010,10,19,08,38,5.50
2010,10,19,08,39,5.50
2010,10,19,08,40,5.50
2010,10,19,08,41,5.60
2010,10,19,08,42,5.60
2010,10,19,08,43,5.60
2010,10,19,08,44,5.70
2010,10,19,08,45,5.70
2010,10,19,08,46,5.70
2010,10,19,08,47,5.70
2010,10,19,08,48,5.70
2010,10,19,08,49,5.70
2010,10,19,08,50,5.70
2010,10,19,08,51,5.80
2010,10,19,08,52,5.80
2010,10,19,08,53,5.80
2010,10,19,08,54,5.80
2010,10,19,08,55,5.90
2010,10,19,08,56,5.90
2010,10,19,08,57,5.90
2010,10,19,08,58,6.00
2010,10,19,08,59,6.00
2010,10,19,09,00,6.00
2010,10,19,09,01,6.10
2010,10,19,09,02,6.10
2010,10,19,09,03,6.20
2010,10,19,09,04,6.30
2010,10,19,09,05,6.50
2010,10,19,09,06,6.60
2010,10,19,09,07,6.70
2010,10,19,09,08,6.80
2010,10,19,09,09,6.80
2010,10,19,09,10,6.80
2010,10,19,09,11,6.80
2010,10,19,09,12,6.90
2010,10,19,09,13,7.00
2010,10,19,09,14,7.00
2010,10,19,09,15,7.10
2010,10,19,09,16,7.10
2010,10,19,09,17,7.20
2010,10,19,09,18,7.20
2010,10,19,09,19,7.30
2010,10,19,09,20,7.30
2010,10,19,09,21,7.30
2010,10,19,09,22,7.30
2010,10,19,09,23,7.30
2010,10,19,09,24,7.30
2010,10,19,09,25,7.40
2010,10,19,09,26,7.40
2010,10,19,09,27,7.50
2010,10,19,09,28,7.50
2010,10,19,09,29,7.60
2010,10,19,09,30,7.60
2010,10,19,09,31,7.70
2010,10,19,09,32,7.80
2010,10,19,09,33,7.90
2010,10,19,09,34,8.00
2010,10,19,09,35,8.10
2010,10,19,09,36,8.20
2010,10,19,09,37,8.20
2010,10,19,09,38,8.20
2010,10,19,09,39,8.20
2010,10,19,09,40,8.20
2010,10,19,09,41,8.20
2010,10,19,09,42,8.20
2010,10,19,09,43,8.20
2010,10,19,09,44,8.20
2010,10,19,09,45,8.30
2010,10,19,09,46,8.30
2010,10,19,09,47,8.30
2010,10,19,09,48,8.40
2010,10,19,09,49,8.50
2010,10,19,09,50,8.60
2010,10,19,09,51,8.70
2010,10,19,09,52,8.80
2010,10,19,09,53,8.90
2010,10,19,09,54,9.00
2010,10,19,09,55,9.10
2010,10,19,09,56,9.20
2010,10,19,09,57,9.20
2010,10,19,09,58,9.10
2010,10,19,09,59,9.10
2010,10,19,10,00,9.10
2010,10,19,10,01,9.10
2010,10,19,10,02,9.10
2010,10,19,10,03,9.20
2010,10,19,10,04,9.20
2010,10,19,10,05,9.30
2010,10,19,10,06,9.30
2010,10,19,10,07,9.40
2010,10,19,10,08,9.40
2010,10,19,10,09,9.50
2010,10,19,10,10,9.60
2010,10,19,10,11,9.70
2010,10,19,10,12,9.70
2010,10,19,10,13,9.70
2010,10,19,10,14,9.80
2010,10,19,10,15,9.90
2010,10,19,10,16,9.90
2010,10,19,10,17,9.90
2010,10,19,10,18,10.00
2010,10,19,10,19,10.10
2010,10,19,10,20,10.10
2010,10,19,10,21,10.20
2010,10,19,10,22,10.30
2010,10,19,10,23,10.40
2010,10,19,10,24,10.50
2010,10,19,10,25,10.60
2010,10,19,10,26,10.70
2010,10,19,10,27,10.80
2010,10,19,10,28,10.90
2010,10,19,10,29,10.90
2010,10,19,10,30,10.90
2010,10,19,10,31,11.00
2010,10,19,10,32,11.10
2010,10,19,10,33,11.20
2010,10,19,10,34,11.20
2010,10,19,10,35,11.20
2010,10,19,10,36,11.20
2010,10,19,10,37,11.20
2010,10,19,10,38,11.30
2010,10,19,10,39,11.40
2010,10,19,10,40,11.40
2010,10,19,10,41,11.40
2010,10,19,10,42,11.50
2010,10,19,10,43,11.60
2010,10,19,10,44,11.60
2010,10,19,10,45,11.70
2010,10,19,10,46,11.80
2010,10,19,10,47,11.80
2010,10,19,10,48,11.90
2010,10,19,10,49,12.00
2010,10,19,10,50,12.10
2010,10,19,10,51,12.10
2010,10,19,10,52,12.20
2010,10,19,10,53,12.20
2010,10,19,10,54,12.30
2010,10,19,10,55,12.30
2010,10,19,10,56,12.30
2010,10,19,10,57,12.30
2010,10,19,10,58,12.40
2010,10,19,10,59,12.50
2010,10,19,11,00,12.50
2010,10,19,11,01,12.60
2010,10,19,11,02,12.60
2010,10,19,11,03,12.70
2010,10,19,11,04,12.70
2010,10,19,11,05,12.70
2010,10,19,11,06,12.70
2010,10,19,11,07,12.70
2010,10,19,11,08,12.80
2010,10,19,11,09,12.80
2010,10,19,11,10,12.80
2010,10,19,11,11,12.80
2010,10,19,11,12,12.90
2010,10,19,11,13,12.90
2010,10,19,11,14,13.00
2010,10,19,11,15,13.00
2010,10,19,11,16,13.10
2010,10,19,11,17,13.20
2010,10,19,11,18,13.10
2010,10,19,11,19,13.10
2010,10,19,11,20,13.20
2010,10,19,11,21,13.20
2010,10,19,11,22,13.20
2010,10,19,11,23,13.20
2010,10,19,11,24,13.30
2010,10,19,11,25,13.30
2010,10,19,11,26,13.30
2010,10,19,11,27,13.30
2010,10,19,11,28,13.30
2010,10,19,11,29,13.30
2010,10,19,11,30,13.30
2010,10,19,11,31,13.40
2010,10,19,11,32,13.50
2010,10,19,11,33,13.50
2010,10,19,11,34,13.40
2010,10,19,11,35,13.30
2010,10,19,11,36,13.30
2010,10,19,11,37,13.40
2010,10,19,11,38,13.50
2010,10,19,11,39,13.40
2010,10,19,11,40,13.40
2010,10,19,11,41,13.30
2010,10,19,11,42,13.40
2010,10,19,11,43,13.40
2010,10,19,11,44,13.40
2010,10,19,11,45,13.40
2010,10,19,11,46,13.40
2010,10,19,11,47,13.50
2010,10,19,11,48,13.50
2010,10,19,11,49,13.60
2010,10,19,11,50,13.60
2010,10,19,11,51,13.60
2010,10,19,11,52,13.50
2010,10,19,11,53,13.60
2010,10,19,11,54,13.60
2010,10,19,11,55,13.70
2010,10,19,11,56,13.80
2010,10,19,11,57,13.90
2010,10,19,11,58,13.90
2010,10,19,11,59,14.00
2010,10,19,12,00,14.00
2010,10,19,12,01,13.90
2010,10,19,12,02,13.90
2010,10,19,12,03,13.90
2010,10,19,12,04,13.90
2010,10,19,12,05,13.90
2010,10,19,12,06,13.80
2010,10,19,12,07,13.80
2010,10,19,12,08,13.80
2010,10,19,12,09,13.80
2010,10,19,12,10,13.80
2010,10,19,12,11,13.80
2010,10,19,12,12,13.70
2010,10,19,12,13,13.70
2010,10,19,12,14,13.70
2010,10,19,12,15,13.70
2010,10,19,12,16,13.70
2010,10,19,12,17,13.80
2010,10,19,12,18,13.80
2010,10,19,12,19,13.90
2010,10,19,12,20,13.90
2010,10,19,12,21,13.90
2010,10,19,12,22,13.90
2010,10,19,12,23,14.00
2010,10,19,12,24,14.00
2010,10,19,12,25,14.20
2010,10,19,12,26,14.20
2010,10,19,12,27,14.20
2010,10,19,12,28,14.20
2010,10,19,12,29,14.30
2010,10,19,12,30,14.30
2010,10,19,12,31,14.40
2010,10,19,12,32,14.50
2010,10,19,12,33,14.50
2010,10,19,12,34,14.50
2010,10,19,12,35,14.50
2010,10,19,12,36,14.50
2010,10,19,12,37,14.60
2010,10,19,12,38,14.60
2010,10,19,12,39,14.60
2010,10,19,12,40,14.60
2010,10,19,12,41,14.70
2010,10,19,12,42,14.60
2010,10,19,12,43,14.50
2010,10,19,12,44,14.50
2010,10,19,12,45,14.50
2010,10,19,12,46,14.50
2010,10,19,12,47,14.50
2010,10,19,12,48,14.50
2010,10,19,12,49,14.50
2010,10,19,12,50,14.60
2010,10,19,12,51,14.60
2010,10,19,12,52,14.70
2010,10,19,12,53,14.70
2010,10,19,12,54,14.70
2010,10,19,12,55,14.60
2010,10,19,12,56,14.60
2010,10,19,12,57,14.60
2010,10,19,12,58,14.60
2010,10,19,12,59,14.60
2010,10,19,13,00,14.60
2010,10,19,13,01,14.60
2010,10,19,13,02,14.60
2010,10,19,13,03,14.50
2010,10,19,13,04,14.50
2010,10,19,13,05,14.60
2010,10,19,13,06,14.60
2010,10,19,13,07,14.60
2010,10,19,13,08,14.60
2010,10,19,13,09,14.60
2010,10,19,13,10,14.50
2010,10,19,13,11,14.50
2010,10,19,13,12,14.50
2010,10,19,13,13,14.50
2010,10,19,13,14,14.50
2010,10,19,13,15,14.40
2010,10,19,13,16,14.40
2010,10,19,13,17,14.40
2010,10,19,13,18,14.40
2010,10,19,13,19,14.50
2010,10,19,13,20,14.50
2010,10,19,13,21,14.50
2010,10,19,13,22,14.50
2010,10,19,13,23,14.50
2010,10,19,13,24,14.50
2010,10,19,13,25,14.60
2010,10,19,13,26,14.70
2010,10,19,13,27,14.70
2010,10,19,13,28,14.80
2010,10,19,13,29,14.80
2010,10,19,13,30,14.80
2010,10,19,13,31,14.80
2010,10,19,13,32,14.90
2010,10,19,13,33,14.90
2010,10,19,13,34,14.90
2010,10,19,13,35,15.00
2010,10,19,13,36,15.10
2010,10,19,13,37,15.10
2010,10,19,13,38,15.20
2010,10,19,13,39,15.20
2010,10,19,13,40,15.30
2010,10,19,13,41,15.30
2010,10,19,13,42,15.30
2010,10,19,13,43,15.30
2010,10,19,13,44,15.30
2010,10,19,13,45,15.30
2010,10,19,13,46,15.30
2010,10,19,13,47,15.30
2010,10,19,13,48,15.30
2010,10,19,13,49,15.20
2010,10,19,13,50,15.20
2010,10,19,13,51,15.20
2010,10,19,13,52,15.20
2010,10,19,13,53,15.30
2010,10,19,13,54,15.30
2010,10,19,13,55,15.20
2010,10,19,13,56,15.20
2010,10,19,13,57,15.20
2010,10,19,13,58,15.30
2010,10,19,13,59,15.30
2010,10,19,14,00,15.30
2010,10,19,14,01,15.50
2010,10,19,14,02,15.50
2010,10,19,14,03,15.60
2010,10,19,14,04,15.70
2010,10,19,14,05,15.80
2010,10,19,14,06,15.80
2010,10,19,14,07,15.80
2010,10,19,14,08,15.80
2010,10,19,14,09,15.80
2010,10,19,14,10,15.80
2010,10,19,14,11,15.80
2010,10,19,14,12,15.80
2010,10,19,14,13,15.80
2010,10,19,14,14,15.80
2010,10,19,14,15,15.80
2010,10,19,14,16,15.80
2010,10,19,14,17,15.70
2010,10,19,14,18,15.70
2010,10,19,14,19,15.60
2010,10,19,14,20,15.60
2010,10,19,14,21,15.50
2010,10,19,14,22,15.50
2010,10,19,14,23,15.50
2010,10,19,14,24,15.60
2010,10,19,14,25,15.50
2010,10,19,14,26,15.50
2010,10,19,14,27,15.50
2010,10,19,14,28,15.40
2010,10,19,14,29,15.30
2010,10,19,14,30,15.40
2010,10,19,14,31,15.50
2010,10,19,14,32,15.50
2010,10,19,14,33,15.50
2010,10,19,14,34,15.40
2010,10,19,14,35,15.30
2010,10,19,14,36,15.30
2010,10,19,14,37,15.20
2010,10,19,14,38,15.20
2010,10,19,14,39,15.10
2010,10,19,14,40,15.00
2010,10,19,14,41,15.00
2010,10,19,14,42,15.00
2010,10,19,14,43,15.00
2010,10,19,14,44,15.10
2010,10,19,14,45,15.10
2010,10,19,14,46,15.10
2010,10,19,14,47,15.10
2010,10,19,14,48,15.10
2010,10,19,14,49,15.10
2010,10,19,14,50,15.00
2010,10,19,14,51,15.00
2010,10,19,14,52,15.00
2010,10,19,14,53,15.10
2010,10,19,14,54,15.20
2010,10,19,14,55,15.30
2010,10,19,14,56,15.30
2010,10,19,14,57,15.20
2010,10,19,14,58,15.20
2010,10,19,14,59,15.30
2010,10,19,15,00,15.20
2010,10,19,15,01,15.10
2010,10,19,15,02,15.10
2010,10,19,15,03,15.10
2010,10,19,15,04,15.10
2010,10,19,15,05,15.20
2010,10,19,15,06,15.20
2010,10,19,15,07,15.10
2010,10,19,15,08,15.10
2010,10,19,15,09,15.10
2010,10,19,15,10,15.20
2010,10,19,15,11,15.20
2010,10,19,15,12,15.20
2010,10,19,15,13,15.20
2010,10,19,15,14,15.20
2010,10,19,15,15,15.10
2010,10,19,15,16,15.10
2010,10,19,15,17,15.20
2010,10,19,15,18,15.30
2010,10,19,15,19,15.30
2010,10,19,15,20,15.40
2010,10,19,15,21,15.40
2010,10,19,15,22,15.50
2010,10,19,15,23,15.50
2010,10,19,15,24,15.40
2010,10,19,15,25,15.40
2010,10,19,15,26,15.30
2010,10,19,15,27,15.30
2010,10,19,15,28,15.30
2010,10,19,15,29,15.30
2010,10,19,15,30,15.30
2010,10,19,15,31,15.30
2010,10,19,15,32,15.30
2010,10,19,15,33,15.20
2010,10,19,15,34,15.20
2010,10,19,15,35,15.10
2010,10,19,15,36,15.00
2010,10,19,15,37,15.00
2010,10,19,15,38,15.00
2010,10,19,15,39,15.00
2010,10,19,15,40,15.00
2010,10,19,15,41,15.00
2010,10,19,15,42,15.10
2010,10,19,15,43,15.10
2010,10,19,15,44,15.10
2010,10,19,15,45,15.10
2010,10,19,15,46,15.10
2010,10,19,15,47,15.10
2010,10,19,15,48,15.10
2010,10,19,15,49,15.10
2010,10,19,15,50,15.10
2010,10,19,15,51,15.10
2010,10,19,15,52,15.10
2010,10,19,15,53,15.00
2010,10,19,15,54,15.00
2010,10,19,15,55,14.90
2010,10,19,15,56,14.90
2010,10,19,15,57,14.80
2010,10,19,15,58,14.80
2010,10,19,15,59,14.70
2010,10,19,16,00,14.70
2010,10,19,16,01,14.60
2010,10,19,16,02,14.60
2010,10,19,16,03,14.50
2010,10,19,16,04,14.50
2010,10,19,16,05,14.40
2010,10,19,16,06,14.40
2010,10,19,16,07,14.40
2010,10,19,16,08,14.40
2010,10,19,16,09,14.40
2010,10,19,16,10,14.30
2010,10,19,16,11,14.40
2010,10,19,16,12,14.30
2010,10,19,16,13,14.30
2010,10,19,16,14,14.30
2010,10,19,16,15,14.30
2010,10,19,16,16,14.30
2010,10,19,16,17,14.30
2010,10,19,16,18,14.30
2010,10,19,16,19,14.30
2010,10,19,16,20,14.30
2010,10,19,16,21,14.30
2010,10,19,16,22,14.30
2010,10,19,16,23,14.30
2010,10,19,16,24,14.30
2010,10,19,16,25,14.30
2010,10,19,16,26,14.40
2010,10,19,16,27,14.40
2010,10,19,16,28,14.40
2010,10,19,16,29,14.40
2010,10,19,16,30,14.50
2010,10,19,16,31,14.50
2010,10,19,16,32,14.50
2010,10,19,16,33,14.50
2010,10,19,16,34,14.50
2010,10,19,16,35,14.50
2010,10,19,16,36,14.60
2010,10,19,16,37,14.60
2010,10,19,16,38,14.60
2010,10,19,16,39,14.50
2010,10,19,16,40,14.50
2010,10,19,16,41,14.50
2010,10,19,16,42,14.50
2010,10,19,16,43,14.40
2010,10,19,16,44,14.40
2010,10,19,16,45,14.40
2010,10,19,16,46,14.50
2010,10,19,16,47,14.50
2010,10,19,16,48,14.40
2010,10,19,16,49,14.40
2010,10,19,16,50,14.40
2010,10,19,16,51,14.40
2010,10,19,16,52,14.40
2010,10,19,16,53,14.40
2010,10,19,16,54,14.40
2010,10,19,16,55,14.40
2010,10,19,16,56,14.40
2010,10,19,16,57,14.40
2010,10,19,16,58,14.40
2010,10,19,16,59,14.40
2010,10,19,17,00,14.40
2010,10,19,17,01,14.40
2010,10,19,17,02,14.40
2010,10,19,17,03,14.30
2010,10,19,17,04,14.30
2010,10,19,17,05,14.30
2010,10,19,17,06,14.30
2010,10,19,17,07,14.20
2010,10,19,17,08,14.20
2010,10,19,17,09,14.20
2010,10,19,17,10,14.20
2010,10,19,17,11,14.20
2010,10,19,17,12,14.20
2010,10,19,17,13,14.20
2010,10,19,17,14,14.20
2010,10,19,17,15,14.20
2010,10,19,17,16,14.20
2010,10,19,17,17,14.20
2010,10,19,17,18,14.30
2010,10,19,17,19,14.30
2010,10,19,17,20,14.30
2010,10,19,17,21,14.30
2010,10,19,17,22,14.30
2010,10,19,17,23,14.40
2010,10,19,17,24,14.40
2010,10,19,17,25,14.40
2010,10,19,17,26,14.40
2010,10,19,17,27,14.40
2010,10,19,17,28,14.40
2010,10,19,17,29,14.40
2010,10,19,17,30,14.40
2010,10,19,17,31,14.40
2010,10,19,17,32,14.30
2010,10,19,17,33,14.30
2010,10,19,17,34,14.30
2010,10,19,17,35,14.20
2010,10,19,17,36,14.20
2010,10,19,17,37,14.20
2010,10,19,17,38,14.20
2010,10,19,17,39,14.20
2010,10,19,17,40,14.20
2010,10,19,17,41,14.20
2010,10,19,17,42,14.20
2010,10,19,17,43,14.20
2010,10,19,17,44,14.20
2010,10,19,17,45,14.10
2010,10,19,17,46,14.10